JBU616 KSFO-KJFK

Flight info

Callsign JBU616
Flight time N/A
Altitude 33000
Route NIITE4 ORRCA Q120 GALLI BAM KOHEN/N0449F350 LCU KU75Q DDY KD81Y KP81A KP81C ONTIJ J16 MCW PMM J70 JHW Q476 WLKES PUCKY1
Aircraft A21N/M-SDE3FGHIRWY/LB1

Departure

Time N/A
Airport San Francisco International Airport (KSFO)

Arrival

Time 2026-05-09 10:56
Airport John F. Kennedy International Airport (KJFK)
Time Latitude Longitude Altitude Speed Heading
2026-05-09 09:52 42.30553 -81.06280 32952 ft 517 kts 98°
2026-05-09 09:52 42.30302 -81.01418 33119 ft 520 kts 97°
2026-05-09 09:52 42.30053 -80.96694 33349 ft 521 kts 98°
2026-05-09 09:53 42.29801 -80.91851 33605 ft 521 kts 98°
2026-05-09 09:53 42.29545 -80.86963 33833 ft 522 kts 97°
2026-05-09 09:53 42.29283 -80.82065 34059 ft 523 kts 97°
2026-05-09 09:53 42.29021 -80.77142 34287 ft 524 kts 97°
2026-05-09 09:54 42.28760 -80.72282 34501 ft 525 kts 97°
2026-05-09 09:54 42.28483 -80.67370 34699 ft 526 kts 97°
2026-05-09 09:54 42.28204 -80.62401 34770 ft 527 kts 97°
2026-05-09 09:55 42.27655 -80.52602 34774 ft 527 kts 97°
2026-05-09 09:55 42.27092 -80.42745 34792 ft 527 kts 97°
2026-05-09 09:56 42.26522 -80.32914 34790 ft 528 kts 98°
2026-05-09 09:56 42.25945 -80.23071 34795 ft 528 kts 98°
2026-05-09 09:57 42.25359 -80.13283 34798 ft 528 kts 98°
2026-05-09 09:57 42.24764 -80.03410 34798 ft 528 kts 98°
2026-05-09 09:58 42.24159 -79.93546 34800 ft 528 kts 98°
2026-05-09 09:58 42.23549 -79.83749 34797 ft 527 kts 97°
2026-05-09 09:59 42.22924 -79.73894 34795 ft 528 kts 97°
2026-05-09 09:59 42.22300 -79.64085 34798 ft 528 kts 97°
2026-05-09 10:00 42.21668 -79.54251 34796 ft 528 kts 97°
2026-05-09 10:00 42.21022 -79.44426 34798 ft 528 kts 97°
2026-05-09 10:01 42.20362 -79.34527 34802 ft 529 kts 98°
2026-05-09 10:01 42.19702 -79.24672 34810 ft 529 kts 98°
2026-05-09 10:02 42.18886 -79.14831 34815 ft 527 kts 103°
2026-05-09 10:02 42.17212 -79.05310 34811 ft 521 kts 113°
2026-05-09 10:03 42.14906 -78.96138 34812 ft 520 kts 115°
2026-05-09 10:03 42.12552 -78.86956 34807 ft 520 kts 114°
2026-05-09 10:04 42.10213 -78.77721 34806 ft 521 kts 113°
2026-05-09 10:04 42.07895 -78.68544 34804 ft 520 kts 114°
2026-05-09 10:05 42.05570 -78.59363 34804 ft 521 kts 113°
2026-05-09 10:05 42.03229 -78.50169 34806 ft 522 kts 113°
2026-05-09 10:06 42.00870 -78.40919 34810 ft 522 kts 112°
2026-05-09 10:06 41.98516 -78.31715 34820 ft 520 kts 114°
2026-05-09 10:07 41.96161 -78.22552 34825 ft 520 kts 113°
2026-05-09 10:07 41.93810 -78.13459 34832 ft 520 kts 114°
2026-05-09 10:08 41.91431 -78.04286 34830 ft 521 kts 113°
2026-05-09 10:08 41.89085 -77.95245 34830 ft 520 kts 113°
2026-05-09 10:09 41.86696 -77.86109 34830 ft 521 kts 113°
2026-05-09 10:09 41.84299 -77.76962 34834 ft 520 kts 113°
2026-05-09 10:10 41.81898 -77.67843 34834 ft 519 kts 113°
2026-05-09 10:10 41.79503 -77.58779 34842 ft 518 kts 113°
2026-05-09 10:11 41.77085 -77.49680 34851 ft 519 kts 113°
2026-05-09 10:11 41.74652 -77.40550 34846 ft 519 kts 112°
2026-05-09 10:12 41.72242 -77.31516 34849 ft 518 kts 113°
2026-05-09 10:12 41.69807 -77.22420 34860 ft 518 kts 114°
2026-05-09 10:13 41.67363 -77.13355 34852 ft 519 kts 113°
2026-05-09 10:13 41.64919 -77.04330 34854 ft 518 kts 114°
2026-05-09 10:14 41.62452 -76.95252 34858 ft 518 kts 113°
2026-05-09 10:14 41.60006 -76.86253 34850 ft 517 kts 113°
2026-05-09 10:15 41.57541 -76.77219 34863 ft 516 kts 114°
2026-05-09 10:15 41.55094 -76.68298 34853 ft 517 kts 114°
2026-05-09 10:16 41.52609 -76.59267 34847 ft 517 kts 114°
2026-05-09 10:16 41.50143 -76.50343 34845 ft 516 kts 113°
2026-05-09 10:17 41.47656 -76.41389 34848 ft 517 kts 113°
2026-05-09 10:17 41.45163 -76.32410 34850 ft 516 kts 114°
2026-05-09 10:18 41.42669 -76.23480 34859 ft 515 kts 114°
2026-05-09 10:18 41.40183 -76.14592 34840 ft 514 kts 114°
2026-05-09 10:18 41.38927 -76.10115 34364 ft 516 kts 113°
2026-05-09 10:19 41.37660 -76.05612 33382 ft 523 kts 114°
2026-05-09 10:19 41.36394 -76.01122 32529 ft 526 kts 114°
2026-05-09 10:19 41.35098 -75.96516 31836 ft 524 kts 114°
2026-05-09 10:19 41.33836 -75.92033 31029 ft 517 kts 114°
2026-05-09 10:20 41.32576 -75.87571 29728 ft 515 kts 114°
2026-05-09 10:20 41.31327 -75.83175 28517 ft 509 kts 114°
2026-05-09 10:20 41.30101 -75.78835 28091 ft 490 kts 115°
2026-05-09 10:20 41.28907 -75.74645 27691 ft 487 kts 114°
2026-05-09 10:21 41.27719 -75.70490 27227 ft 483 kts 115°
2026-05-09 10:21 41.26441 -75.66390 26773 ft 477 kts 118°
2026-05-09 10:21 41.25108 -75.62382 26293 ft 473 kts 118°
2026-05-09 10:21 41.23764 -75.58382 25830 ft 469 kts 118°
2026-05-09 10:22 41.22448 -75.54475 25372 ft 465 kts 118°
2026-05-09 10:22 41.21140 -75.50584 24908 ft 462 kts 118°
2026-05-09 10:22 41.19829 -75.46686 24446 ft 457 kts 118°
2026-05-09 10:22 41.18551 -75.42879 23992 ft 453 kts 118°
2026-05-09 10:23 41.17272 -75.39075 23544 ft 449 kts 119°
2026-05-09 10:23 41.16011 -75.35335 23101 ft 446 kts 118°
2026-05-09 10:23 41.14738 -75.31565 22723 ft 441 kts 119°
2026-05-09 10:23 41.13491 -75.27872 22736 ft 442 kts 120°
2026-05-09 10:24 41.12241 -75.24179 22747 ft 443 kts 119°
2026-05-09 10:24 41.10978 -75.20441 22776 ft 442 kts 119°
2026-05-09 10:24 41.09720 -75.16730 22796 ft 443 kts 119°
2026-05-09 10:24 41.08458 -75.13003 22806 ft 442 kts 119°
2026-05-09 10:25 41.07209 -75.09326 22831 ft 443 kts 119°
2026-05-09 10:25 41.05938 -75.05592 22442 ft 444 kts 119°
2026-05-09 10:25 41.04681 -75.01895 21939 ft 441 kts 119°
2026-05-09 10:25 41.03418 -74.98192 21468 ft 437 kts 119°
2026-05-09 10:26 41.02174 -74.94541 21023 ft 433 kts 119°
2026-05-09 10:26 41.00941 -74.90932 20588 ft 429 kts 119°
2026-05-09 10:26 40.99862 -74.87277 20132 ft 429 kts 112°
2026-05-09 10:26 40.99111 -74.83443 19676 ft 429 kts 104°
2026-05-09 10:27 40.98618 -74.79581 19243 ft 426 kts 101°
2026-05-09 10:27 40.98189 -74.75719 18935 ft 419 kts 101°
2026-05-09 10:27 40.97775 -74.71915 18922 ft 420 kts 101°
2026-05-09 10:27 40.97350 -74.68092 18930 ft 419 kts 101°
2026-05-09 10:28 40.96919 -74.64320 18921 ft 420 kts 101°
2026-05-09 10:28 40.96476 -74.60517 18918 ft 419 kts 101°
2026-05-09 10:28 40.96025 -74.56684 18930 ft 419 kts 101°
2026-05-09 10:28 40.95573 -74.52872 18926 ft 419 kts 101°
2026-05-09 10:29 40.95120 -74.49067 18925 ft 419 kts 101°
2026-05-09 10:29 40.94670 -74.45286 18935 ft 420 kts 102°
2026-05-09 10:29 40.94215 -74.41479 18936 ft 419 kts 102°
2026-05-09 10:29 40.93758 -74.37669 18933 ft 420 kts 102°
2026-05-09 10:30 40.93298 -74.33848 18936 ft 420 kts 102°
2026-05-09 10:30 40.92840 -74.30046 18936 ft 420 kts 102°
2026-05-09 10:30 40.92377 -74.26207 18940 ft 421 kts 102°
2026-05-09 10:30 40.91926 -74.22465 18931 ft 407 kts 102°
2026-05-09 10:31 40.91492 -74.18880 18926 ft 391 kts 102°
2026-05-09 10:31 40.91065 -74.15376 18929 ft 382 kts 103°
2026-05-09 10:31 40.90406 -74.12030 18934 ft 376 kts 116°
2026-05-09 10:31 40.89259 -74.08949 18940 ft 369 kts 128°
2026-05-09 10:32 40.87897 -74.06140 18927 ft 365 kts 130°
2026-05-09 10:32 40.86481 -74.03355 18669 ft 361 kts 131°
2026-05-09 10:32 40.85089 -74.00609 18237 ft 361 kts 130°
2026-05-09 10:32 40.83714 -73.97859 17827 ft 360 kts 129°
2026-05-09 10:33 40.82346 -73.95091 17455 ft 357 kts 129°
2026-05-09 10:33 40.81012 -73.92372 17094 ft 354 kts 129°
2026-05-09 10:33 40.79592 -73.89785 16705 ft 345 kts 141°
2026-05-09 10:33 40.77687 -73.88007 16294 ft 325 kts 165°
2026-05-09 10:34 40.75560 -73.87350 15864 ft 310 kts 182°
2026-05-09 10:34 40.71175 -73.87238 14358 ft 327 kts 187°
2026-05-09 10:34 40.68894 -73.87305 13823 ft 327 kts 187°
2026-05-09 10:35 40.66659 -73.87380 13650 ft 316 kts 187°
2026-05-09 10:35 40.64500 -73.87446 13469 ft 306 kts 187°
2026-05-09 10:35 40.62413 -73.87500 13289 ft 297 kts 187°
2026-05-09 10:35 40.60363 -73.87543 13107 ft 288 kts 187°
2026-05-09 10:36 40.58385 -73.87582 12905 ft 279 kts 187°
2026-05-09 10:36 40.56463 -73.87615 12594 ft 277 kts 186°
2026-05-09 10:36 40.54520 -73.87225 12221 ft 283 kts 173°
2026-05-09 10:36 40.52631 -73.86549 11923 ft 282 kts 171°
2026-05-09 10:37 40.50771 -73.85855 11603 ft 279 kts 171°
2026-05-09 10:37 40.48897 -73.85181 11262 ft 277 kts 172°
2026-05-09 10:37 40.47042 -73.84536 10920 ft 274 kts 172°
2026-05-09 10:37 40.45206 -73.83915 10584 ft 272 kts 172°
2026-05-09 10:38 40.43375 -73.83302 10238 ft 270 kts 172°
2026-05-09 10:38 40.41558 -73.82698 9990 ft 266 kts 172°
2026-05-09 10:38 40.39752 -73.82103 9977 ft 268 kts 172°
2026-05-09 10:38 40.37958 -73.81514 9975 ft 268 kts 172°
2026-05-09 10:39 40.36130 -73.80915 9972 ft 269 kts 172°
2026-05-09 10:39 40.34322 -73.80321 9968 ft 269 kts 172°
2026-05-09 10:39 40.32484 -73.79720 9966 ft 269 kts 172°
2026-05-09 10:39 40.30683 -73.79130 9967 ft 269 kts 172°
2026-05-09 10:40 40.28849 -73.78531 9965 ft 269 kts 172°
2026-05-09 10:40 40.27029 -73.77936 9965 ft 269 kts 172°
2026-05-09 10:40 40.25238 -73.77232 9958 ft 274 kts 161°
2026-05-09 10:40 40.23628 -73.75866 9964 ft 283 kts 143°
2026-05-09 10:41 40.22351 -73.73846 9969 ft 291 kts 125°
2026-05-09 10:41 40.21586 -73.71393 9969 ft 298 kts 106°
2026-05-09 10:41 40.21426 -73.68675 9971 ft 303 kts 86°
2026-05-09 10:41 40.21921 -73.66020 9974 ft 304 kts 66°
2026-05-09 10:42 40.23040 -73.63674 9978 ft 304 kts 46°
2026-05-09 10:42 40.24655 -73.61917 9979 ft 300 kts 26°
2026-05-09 10:42 40.26501 -73.60651 9983 ft 299 kts 25°
2026-05-09 10:42 40.28262 -73.59212 9982 ft 301 kts 30°
2026-05-09 10:43 40.30001 -73.57649 9980 ft 301 kts 32°
2026-05-09 10:43 40.31722 -73.56109 9967 ft 299 kts 26°
2026-05-09 10:43 40.33579 -73.54935 9945 ft 296 kts 15°
2026-05-09 10:43 40.35554 -73.54213 9818 ft 291 kts
2026-05-09 10:44 40.37562 -73.53717 9691 ft 292 kts
2026-05-09 10:44 40.39538 -73.53268 9568 ft 291 kts
2026-05-09 10:44 40.41536 -73.52813 9443 ft 291 kts
2026-05-09 10:44 40.43541 -73.52342 9336 ft 290 kts
2026-05-09 10:45 40.45509 -73.51871 9222 ft 291 kts
2026-05-09 10:46 40.53540 -73.49923 8724 ft 300 kts
2026-05-09 10:46 40.55577 -73.49423 8601 ft 300 kts
2026-05-09 10:46 40.57656 -73.48911 8467 ft 300 kts
2026-05-09 10:46 40.59681 -73.48414 8330 ft 299 kts
2026-05-09 10:47 40.61752 -73.47906 8165 ft 299 kts
2026-05-09 10:47 40.63772 -73.47409 7984 ft 298 kts
2026-05-09 10:47 40.65806 -73.46909 7763 ft 297 kts
2026-05-09 10:47 40.67841 -73.46346 7462 ft 298 kts 11°
2026-05-09 10:48 40.69784 -73.45437 7139 ft 300 kts 19°
2026-05-09 10:48 40.71670 -73.44280 6810 ft 299 kts 22°
2026-05-09 10:48 40.73538 -73.43065 6469 ft 297 kts 23°
2026-05-09 10:48 40.75468 -73.42194 6071 ft 290 kts 359°
2026-05-09 10:49 40.77368 -73.42673 5713 ft 272 kts 324°
2026-05-09 10:49 40.78661 -73.44352 5390 ft 253 kts 294°
2026-05-09 10:49 40.79216 -73.45709 5188 ft 250 kts 291°
2026-05-09 10:49 40.80290 -73.48387 4765 ft 248 kts 293°
2026-05-09 10:50 40.81141 -73.50378 4443 ft 247 kts 294°
2026-05-09 10:50 40.81961 -73.52354 4105 ft 244 kts 286°
2026-05-09 10:50 40.82120 -73.54490 3916 ft 237 kts 255°
2026-05-09 10:50 40.81503 -73.56460 3957 ft 225 kts 240°
2026-05-09 10:51 40.80731 -73.58200 3962 ft 209 kts 238°
2026-05-09 10:51 40.79978 -73.59809 3974 ft 208 kts 237°
2026-05-09 10:51 40.79221 -73.61415 3979 ft 208 kts 237°
2026-05-09 10:51 40.78462 -73.63028 3908 ft 205 kts 237°
2026-05-09 10:52 40.77691 -73.64570 3574 ft 207 kts 229°
2026-05-09 10:52 40.76627 -73.65870 3229 ft 208 kts 217°
2026-05-09 10:52 40.75508 -73.66882 2987 ft 201 kts 213°
2026-05-09 10:52 40.74339 -73.67826 2696 ft 194 kts 211°
2026-05-09 10:53 40.73204 -73.68708 2232 ft 189 kts 211°
2026-05-09 10:53 40.72060 -73.69595 1920 ft 189 kts 211°
2026-05-09 10:53 40.70953 -73.70458 1527 ft 181 kts 211°
2026-05-09 10:53 40.69914 -73.71272 1251 ft 166 kts 211°
2026-05-09 10:54 40.68986 -73.71997 1072 ft 150 kts 210°
2026-05-09 10:54 40.68128 -73.72669 850 ft 137 kts 210°
2026-05-09 10:54 40.67314 -73.73305 677 ft 135 kts 210°
2026-05-09 10:54 40.66517 -73.73933 489 ft 134 kts 210°
2026-05-09 10:55 40.65704 -73.74558 325 ft 135 kts 210°
2026-05-09 10:55 40.64888 -73.75203 155 ft 137 kts 210°
2026-05-09 10:55 40.64077 -73.75839 27 ft 130 kts 209°
2026-05-09 10:55 40.63473 -73.76305 21 ft 58 kts 210°
2026-05-09 10:56 40.63302 -73.76472 22 ft 22 kts 236°
2026-05-09 10:56 40.63242 -73.76614 21 ft 13 kts 253°
2026-05-09 10:56 40.63247 -73.76735 22 ft 14 kts 291°
2026-05-09 10:56 40.63297 -73.76849 21 ft 14 kts 302°
2026-05-09 10:57 40.63374 -73.76936 22 ft 15 kts 348°
2026-05-09 10:57 40.63481 -73.76926 22 ft 15 kts
2026-05-09 10:57 40.63592 -73.76917 22 ft 16 kts
2026-05-09 10:57 40.63705 -73.76916 21 ft 16 kts
2026-05-09 10:58 40.63820 -73.76914 21 ft 16 kts
2026-05-09 10:58 40.63937 -73.76912 21 ft 16 kts
2026-05-09 10:58 40.64037 -73.76908 21 ft 17 kts
2026-05-09 10:58 40.64155 -73.76891 21 ft 16 kts
2026-05-09 10:59 40.64261 -73.76884 21 ft 14 kts
2026-05-09 10:59 40.64349 -73.76885 21 ft 12 kts 350°
2026-05-09 10:59 40.64403 -73.76955 21 ft 12 kts 291°
2026-05-09 10:59 40.64423 -73.77052 22 ft 13 kts 282°
2026-05-09 11:00 40.64442 -73.77155 21 ft 12 kts 283°
2026-05-09 11:00 40.64470 -73.77229 21 ft 7 kts 284°
2026-05-09 11:00 40.64477 -73.77277 22 ft 4 kts 298°
2026-05-09 11:00 40.64491 -73.77290 22 ft 1 kts 342°
2026-05-09 11:01 40.64507 -73.77290 21 ft 2 kts 359°
2026-05-09 11:01 40.64519 -73.77290 21 ft 0 kts
2026-05-09 11:01 40.64523 -73.77290 21 ft 0 kts
2026-05-09 11:02 40.64522 -73.77290 21 ft 0 kts